World > North America > United States > New York

Sanborn, New York Regional Weather

Lat: 43.14N, Lon: 78.89W
Wx Zone: NYZ001
Warning NWS WEATHER ALERT - HARD FROST ADVISORY (More Info. Click Here) Warning
Feedback

Sanborn, NY Regional Weather

Expires:201910181300;;891243
ASUS41 KALY 181210
RWRALY

NEW YORK STATE HOURLY WEATHER ROUNDUP
NATIONAL WEATHER SERVICE ALBANY NY
800 AM EDT FRI OCT 18 2019

NOTE: "FAIR" INDICATES FEW OR NO CLOUDS BELOW 12,000 FEET WITH NO
SIGNIFICANT WEATHER AND/OR NO OBSTRUCTIONS TO VISIBILITY.


NYZ001>004-010>016-019>021-085-181300-
WEST

  
CITY           SKY/WX    TMP DP  RH WIND       PRES   REMARKS
NIAGARA FALLS  CLOUDY    44  37  76 W8        29.97R                  
BUFFALO        MOCLDY    42  38  85 W8        29.97R                  
DUNKIRK        CLOUDY    46  36  68 NW14      29.99S                  
JAMESTOWN      CLOUDY    40  36  86 NW7       29.97R                  
WELLSVILLE     CLOUDY    38  36  92 NW13G18   29.93R WCI  30          
ROCHESTER      CLOUDY    45  37  73 NW16      29.94R                  
PENN YAN       CLOUDY    43  37  79 NW9G16    29.90R                  
$$

             KEY
       WCI = WIND CHILL INDEX
       VSB = VISIBILITY
       HX  = HEAT INDEX
$$
  

SKY/WX - Weather  TMP - Temperature  DP - Dew Point  RH - Relative Humidity
WIND - Wind Direction/Speed PRES - Barometric Pressure VSB - Visibility
WCI - Wind Chill Index E13G22 Wind - East Wind 13 mph/Gusts of 22 mph